www.pogodaiklimat.ru

Погода и климат >> Архив погоды >> Австралия >> Geraldton Airport


ПОГОДА в Geraldton Airport

  • Прогноз погоды в Geraldton Airport
  • Монитор погоды в Geraldton Airport
  • Климат города

АРХИВ ПОГОДЫ в Geraldton Airport

Время (UTC), дата Ветер
(напр.,м/с)
 
Видим.   Явления Облачность Т
(С)
Тd
(С)
f
(%)
Тe
(С)
Тes
(С)
Комфортность P
(гПа)
Po
(гПа)
Тmin
(С)
Tmax
(С)
R
(мм)
R24
(мм)
S
(см)
04 15.10 ЮЗ 8 н/о н/о +22.3 +8.1 40 +23 +23 комфорт 1020.0 1016.4
06 15.10 Ю 7 н/о н/о +21.5 +8.7 44 +23 +23 комфорт 1019.7 1016.1
07 15.10 Ю 7 н/о н/о +20.9 +9.2 47 +22 +22 комфорт 1019.5 1015.9
09 15.10 Ю 8 н/о н/о +20.0 +11.0 56 +21 +21 комфорт 1019.5 1015.9
10 15.10 Ю 7 н/о н/о +18.6 +10.7 60 +18 +18 1020.1 1016.5
12 15.10 Ю 5 н/о н/о +16.4 +11.1 71 +16 +16 1021.0 1017.4
13 15.10 Ю 5 н/о н/о +16.1 +11.5 74 +15 +15 1021.4 1017.8 +23.5
15 15.10 ЮВ 4 н/о н/о +12.9 +9.7 81 +11 +11 1021.4 1017.8
16 15.10 ЮВ 3 н/о н/о +12.0 +8.7 80 +10 +10 1021.2 1017.6
18 15.10 ЮВ 3 н/о н/о +9.8 +7.6 86 +8 +8 1020.6 1017.0
19 15.10 ЮВ 3 н/о н/о +8.4 +6.4 87 +6 +6 1020.3 1016.7
21 15.10 ЮВ 3 н/о н/о +7.0 +5.6 91 +4 +4 1019.9 1016.3
22 15.10 ЮВ 3 н/о н/о +6.7 +5.3 91 +4 +4 1020.0 1016.4
00 16.10 В 4 н/о н/о +17.6 +10.0 61 +17 +17 1019.7 1016.1
01 16.10 С 2 н/о н/о +22.7 +9.8 44 +24 +24 комфорт 1019.4 1015.8 +6.3
03 16.10 ЮЗ 6 н/о н/о +26.8 +10.9 37 +28 +28 жарко 1017.8 1014.2
04 16.10 ЮЗ 7 н/о н/о +26.4 +11.7 40 +28 +28 жарко 1016.9 1013.3
06 16.10 ЮЗ 8 н/о н/о +27.2 +9.5 33 +28 +28 жарко 1015.4 1011.8
07 16.10 Ю 7 н/о н/о +26.7 +11.6 39 +28 +28 жарко 1015.0 1011.4
09 16.10 Ю 7 н/о н/о +23.3 +13.2 53 +26 +26 жарко 1014.8 1011.2
10 16.10 Ю 7 н/о н/о +21.3 +14.7 66 +24 +24 комфорт 1015.2 1011.6
12 16.10 Ю 3 н/о н/о +17.1 +14.7 86 +17 +17 1015.7 1012.1
13 16.10 ЮВ 3 н/о н/о +14.9 +12.8 87 +14 +14 1015.6 1012.0 +29.4
15 16.10 В 3 н/о н/о +12.3 +10.9 91 +11 +11 1014.1 1010.5
16 16.10 СЗ 1 6000 м н/о +12.4 +11.3 93 +13 +13 1013.8 1010.2
18 16.10 С 3 н/о н/о +10.5 +9.3 92 +9 +9 1012.1 1008.5
19 16.10 С 3 н/о н/о +10.0 +8.9 93 +8 +8 1012.0 1008.4
21 16.10 С 5 н/о н/о +11.0 +9.9 93 +8 +8 1011.1 1007.5
22 16.10 С 4 н/о н/о +10.9 +9.7 92 +9 +9 1011.4 1007.8
00 17.10 С 2 н/о н/о +18.1 +14.4 79 +19 +19 1011.9 1008.3
01 17.10 З 4 н/о н/о +22.1 +16.6 71 +26 +26 душно 1011.7 1008.1 +10.0
03 17.10 З 4 н/о н/о +23.3 +16.1 64 +28 +28 душно 1010.6 1007.0
04 17.10 З 5 н/о 1/1 600 м
[]
+24.1 +16.9 64 +28 +38 душно 1010.1 1006.5
06 17.10 З 7 н/о н/о +23.3 +14.0 56 +27 +27 душно 1009.3 1005.7
07 17.10 З 7 н/о 1/1 600 м
[]
+23.9 +15.1 58 +27 +30 жарко 1008.5 1005.0
09 17.10 З 7 н/о н/о +21.0 +14.9 68 +24 +24 комфорт 1009.0 1005.4
10 17.10 З 7 н/о 6/6 600 м
[]
+19.6 +14.2 71 +21 +21 комфорт 1009.3 1005.7
12 17.10 З 7 н/о н/о +18.9 +14.0 73 +19 +19 1010.0 1006.4
13 17.10 СЗ 6 н/о 4/4 600 м
[]
+18.7 +13.8 73 +19 +19 1010.0 1006.4 +25.0
15 17.10 З 7 н/о н/о +18.8 +13.2 70 +19 +19 1009.2 1005.6
16 17.10 СЗ 6 н/о 10/10 600 м
[]
+18.8 +13.9 73 +19 +19 1008.7 1005.1
18 17.10 ЮЗ 9 н/о н/о +17.7 +15.0 84 +17 +17 1007.8 1004.3
19 17.10 ЮЗ 7 н/о 10/10 300 м
[]
+16.7 +13.4 81 +16 +16 1008.1 1004.6
21 17.10 З 6 н/о н/о +16.9 +12.2 74 +16 +16 1008.4 1004.9
22 17.10 З 5 н/о {осадки} 10/10 600 м
[]
+17.3 +12.2 72 +17 +17 1009.0 1005.4
00 18.10 З 8 н/о н/о +18.2 +11.7 66 +18 +18 1010.1 1006.5
01 18.10 З 10 н/о {осадки} 10/0 2000 м
[]
+18.2 +10.1 59 +17 +18 1010.9 1007.3 +15.4 0.2
03 18.10 З 11 н/о н/о +19.6 +8.0 47 +20 +20 1012.1 1008.5
04 18.10 З 6 н/о осадки 10/10 600 м
[]
+16.2 +12.4 78 +15 +15 1012.5 1008.9
06 18.10 З 10 н/о н/о +20.3 +7.7 44 +21 +21 комфорт 1013.0 1009.4
07 18.10 З 10 н/о {осадки} 8/8 1000 м
[]
+20.3 +7.3 43 +21 +21 комфорт 1013.3 1009.7 0.2
09 18.10 З 9 н/о н/о +18.7 +6.5 45 +18 +18 1014.3 1010.7
10 18.10 ЮЗ 8 н/о 1/1 1000 м
[]
+17.0 +5.9 48 +16 +16 1015.2 1011.6
12 18.10 ЮЗ 6 н/о н/о +15.8 +5.4 50 +15 +15 1016.8 1013.2
13 18.10 ЮЗ 6 н/о 8/8 1000 м
[]
+15.1 +6.9 58 +14 +14 1017.6 1014.0 +21.5
15 18.10 ЮЗ 5 н/о н/о +15.0 +7.1 59 +14 +14 1018.1 1014.5
16 18.10 ЮЗ 5 н/о 1/1 1000 м
[]
+14.9 +7.5 61 +14 +14 1018.1 1014.5
18 18.10 ЮЗ 4 н/о н/о +14.9 +6.7 58 +14 +14 1018.3 1014.7
19 18.10 Ю 5 н/о в посл. час осадки 5/5 300 м
[]
+13.5 +10.9 84 +11 +11 1018.4 1014.8 0.4
21 18.10 Ю 1 н/о н/о +13.4 +10.6 83 +14 +14 1019.3 1015.7
22 18.10 СВ 3 н/о 10/10 1000 м
[]
+12.0 +10.1 88 +10 +10 1020.0 1016.4
00 19.10 В 3 н/о н/о +14.0 +11.5 85 +13 +13 1021.9 1018.3
01 19.10 В 3 н/о {осадки} 10/10 1000 м
[]
+16.2 +10.7 70 +16 +16 1022.4 1018.8 +11.8 0.8
03 19.10 Ю 6 н/о н/о +19.7 +8.4 48 +20 +20 1022.1 1018.5
04 19.10 Ю 4 н/о {осадки} 10/10 1000 м
[]
+19.4 +7.8 47 +20 +20 1021.8 1018.2
06 19.10 Ю 7 н/о н/о +20.6 +7.2 42 +21 +21 комфорт 1021.0 1017.4
07 19.10 Ю 7 н/о {осадки} н/о +20.5 +7.2 42 +21 +21 комфорт 1020.7 1017.1 0.2
09 19.10 Ю 7 н/о н/о +18.9 +6.4 44 +19 +19 1020.9 1017.3
10 19.10 Ю 6 н/о н/о +17.6 +7.9 53 +17 +17 1021.3 1017.7
12 19.10 Ю 4 н/о н/о +13.7 +7.7 67 +12 +12 1022.3 1018.7
13 19.10 Ю 4 н/о н/о +13.4 +8.0 70 +12 +12 1022.6 1019.0 +22.2
15 19.10 ЮВ 3 н/о н/о +10.4 +6.7 78 +9 +9 1022.2 1018.6
16 19.10 ЮВ 4 н/о н/о +9.5 +6.6 82 +7 +7 1021.7 1018.1
18 19.10 В 2 н/о н/о +8.2 +5.8 85 +7 +7 1021.0 1017.4
19 19.10 СВ 3 н/о н/о +7.7 +5.5 86 +5 +5 1020.8 1017.2
21 19.10 В 2 н/о н/о +7.2 +5.3 88 +5 +5 1020.7 1017.1
22 19.10 СВ 3 н/о н/о +7.0 +5.2 88 +4 +4 1021.1 1017.5
00 20.10 ЮВ 4 н/о н/о +17.3 +7.6 53 +17 +17 1021.5 1017.9
01 20.10 ЮВ 5 н/о н/о +19.4 +6.8 44 +20 +20 1021.4 1017.8 +6.6 0.2
03 20.10 ЮЗ 6 н/о н/о +21.8 +9.7 46 +23 +23 комфорт 1019.6 1016.0
04 20.10 ЮЗ 6 н/о н/о +22.3 +10.1 46 +24 +24 комфорт 1019.0 1015.4
06 20.10 ЮЗ 7 н/о н/о +21.5 +9.4 46 +23 +23 комфорт 1018.6 1015.0
07 20.10 ЮЗ 8 н/о н/о +20.8 +11.2 54 +22 +22 комфорт 1018.6 1015.0
09 20.10 ЮЗ 6 н/о н/о +19.7 +10.9 57 +21 +21 комфорт 1018.6 1015.0
10 20.10 Ю 6 н/о 5/5 600 м
[]
+18.5 +11.6 64 +18 +19 1019.0 1015.4
12 20.10 ЮЗ 3 н/о н/о +14.7 +9.9 73 +14 +14 1019.6 1016.0
13 20.10 ЮЗ 4 н/о 8/8 600 м
[]
+15.8 +10.8 72 +15 +15 1019.9 1016.3 +23.3
15 20.10 ЮЗ 5 н/о н/о +16.7 +9.9 64 +16 +16 1019.4 1015.8
16 20.10 ЮЗ 2 н/о 3/3 1000 м
[]
+14.2 +9.4 73 +14 +14 1018.9 1015.3
18 20.10 ЮЗ 4 н/о н/о +16.3 +9.0 62 +16 +16 1018.0 1014.4
19 20.10 ЮЗ 3 н/о 9/9 1000 м
[]
+17.4 +10.5 64 +17 +17 1017.9 1014.3
21 20.10 ЮЗ 4 н/о н/о +17.6 +9.2 58 +17 +17 1018.3 1014.7
22 20.10 ЮЗ 5 н/о 10/10 600 м
[]
+17.7 +12.2 70 +17 +17 1019.1 1015.5
00 21.10 ЮЗ 5 н/о н/о +19.4 +11.4 60 +20 +20 1019.6 1016.0
01 21.10 З 6 н/о 5/5 600 м
[]
+20.4 +11.9 58 +22 +24 комфорт 1019.8 1016.2 +14.0
03 21.10 ЮЗ 6 н/о н/о +21.2 +9.1 46 +22 +22 комфорт 1019.7 1016.1
04 21.10 ЮЗ 6 н/о 10/10 1000 м
[]
+21.4 +10.6 50 +23 +23 комфорт 1019.2 1015.6
06 21.10 ЮЗ 8 н/о н/о +22.1 +9.3 44 +24 +24 комфорт 1018.4 1014.8
07 21.10 ЮЗ 7 н/о 9/9 1000 м
[]
+22.4 +11.2 49 +25 +25 комфорт 1018.1 1014.5
09 21.10 ЮЗ 6 н/о н/о +19.9 +11.9 60 +21 +21 комфорт 1018.2 1014.6
10 21.10 ЮЗ 6 н/о 10/10 600 м
[]
+19.1 +12.8 67 +20 +20 1018.4 1014.8
12 21.10 Ю 3 н/о н/о +16.1 +13.4 84 +16 +16 1019.1 1015.5
13 21.10 ЮЗ 4 н/о 9/9 300 м
[]
+17.2 +14.5 84 +17 +17 1019.5 1015.9 +23.6
15 21.10 Ю 3 н/о н/о +16.2 +13.1 82 +16 +16 1019.2 1015.6
16 21.10 Ю 3 н/о 1/1 600 м
[]
+14.5 +12.0 85 +14 +14 1019.0 1015.4
18 21.10 ЮВ 3 н/о н/о +14.3 +12.2 87 +13 +13 1018.4 1014.8
19 21.10 ЮВ 3 н/о 10/10 600 м
[]
+14.7 +12.9 89 +14 +14 1018.6 1015.0
21 21.10 ЮВ 2 н/о н/о +14.5 +12.9 90 +14 +14 1019.2 1015.6
22 21.10 ЮВ 3 н/о 9/9 1000 м
[]
+14.5 +11.8 84 +14 +14 1019.9 1016.3
00 22.10 ЮВ 4 н/о н/о +18.5 +10.1 58 +19 +19 1020.7 1017.1
01 22.10 Ю 5 н/о 5/5 1000 м
[]
+20.8 +9.7 49 +22 +25 комфорт 1020.9 1017.3 +12.5
03 22.10 Ю 6 н/о н/о +21.2 +9.4 47 +23 +23 комфорт 1020.6 1017.0
04 22.10 Ю 7 н/о {осадки} 1/1 1000 м
[]
+21.1 +8.7 45 +22 +28 комфорт 1020.1 1016.5

 

Местоположение метеостанции Geraldton Airport (Западная Австралия, Австралия): широта -28.80 долгота 114.70 высота над уровнем моря 35 м.

В архиве по умолчанию представлена погода в Geraldton Airport за последнюю неделю. Архивные данные за месяц целиком и за предыдущие месяцы, начиная с января 2011 года, Вы можете получить, выбрав интересующий диапазон дат из раскрывающегося списка и нажав кнопку "Ввод!".


*Определитесь, кто Вы:
робот инопланетянин человек

Внимание! Время в таблицах - всемирное. Для получения местного времени необходимо прибавить поправку, которая в Geraldton Airport равна 8 ч.

Смотрите также архив погоды в соседних городах и на ближайших метеорологических станциях:

Погода в Morawa Airport (Западная Австралия, Австралия) (136 км)
Погода в Rottnest Island Lighthouse (Западная Австралия, Австралия) (188 км)
Погода в Dalwallinu (Западная Австралия, Австралия) (252 км)
Погода в Mount Magnet Aero (Западная Австралия, Австралия) (316 км)
Погода в Gingin Aero (Западная Австралия, Австралия) (318 км)
Погода в Shark Bay Airport (Западная Австралия, Австралия) (341 км)
Погода в Bullsbrook Pearce Amo (Западная Австралия, Австралия) (343 км)
Погода в Wanneroo (Западная Австралия, Австралия) (344 км)
Погода в Mount Lawley Perth Metro (Западная Австралия, Австралия) (365 км)
Погода в Swanbourne (Западная Австралия, Австралия) (365 км)

Пояснения к столбцам:

Ветер - указаны скорость ветра в м/с - средняя за 10 мин, порывы в срок и между сроками (в фигурных скобках) и направление, откуда дует ветер: С - северный, СВ - северо-восточный, В - восточный, ЮВ - юго-восточный, Ю - южный, ЮЗ - юго-западный, З - западный, СЗ - северо-западный.
Видимость - горизонтальная дальность видимости в метрах или километрах. При видимости от 1 до 10 км при отсутствии осадков обычно наблюдается дымка, при ухудшении видимости до 1 км и менее - туман. В сухую погоду видимость может ухудшаться дымом, пылью или мглою.
Явления - указаны атмосферные явления, наблюдавшиеся в срок или в последний час перед сроком; фигурными скобками обозначены явления, наблюдавшиеся между сроками (за 1-3 часа до срока); квадратными скобками обозначены град или гололедные отложения с указанием их диаметра в мм.
Облачность - указаны через наклонную черту общая и нижняя облачность в баллах и высота нижней границы облаков в метрах; квадратными скобками обозначены формы облаков: Ci - перистые, Cs - перисто-слоистые, Cc - перисто-кучевые, Ac - высококучевые, As - высокослоистые, Sc - слоисто-кучевые, Ns - слоисто-дождевые, Cu - кучевые, Cb - кучево-дождевые. Подробнее классификацию облаков см. в Атласе облаков (PDF).
T - Температура воздуха - температура, измеренная на высоте 2 м над землей.
Td - Температура точки росы - температура, при понижении до которой содержащийся в воздухе водяной пар достигнет насыщения.
f - Относительная влажность воздуха - влажноcть воздуха, измеренная на высоте 2 м над землей.
Te - Эффективная температура - температура, которую ощущает одетый по сезону человек в тени. Характеристика душности погоды. При расчете учитывается влияние влажности воздуха и скорости ветра на теплоощущения человека.
Tes - Эффективная температура на солнце - температура, которую ощущает человек, с поправкой на солнечный нагрев. Характеристика знойности погоды. Зависит от высоты солнца над горизонтом, облачности и скорости ветра. Ночью, в пасмурную погоду, а также при ветре 12 м/с и более поправка равна нулю.
P - Атмосферное давление - приведенное к уровню моря атмосферное давление.
Po - Атмосферное давление - измеренное на уровне метеостанции атмосферное давление.
Tmin - Минимальная температура - минимум температуры воздуха на высоте 2 м над землей.
Tmax - Максимальная температура - максимум температуры воздуха на высоте 2 м над землей.
R - Количество осадков - Количество выпавших осадков за период времени, мм. При наведении курсора мыши на число - период времени, за который выпало указанное количество осадков.
R24 - Количество осадков - Количество выпавших осадков за 24 часа, мм.
S - Снежный покров - Высота снежного покрова, см. При наведении курсора мыши на число - состояние снежного покрова и степень покрытия местности в баллах.